Weather History for Hutchinson, MN

Change the Weather History Date:

Wednesday, October 31, 2012

  Actual Average Record
Temperature  
Mean Temperature 39 °F -  
Max Temperature 54 °F 51 °F 73 °F (1999)
Min Temperature 24 °F 33 °F 15 °F (1996)
Degree Days  
Heating Degree Days 26    
Moisture  
Dew Point 27 °F    
Average Humidity 70    
Maximum Humidity 94    
Minimum Humidity 39    
Precipitation  
Precipitation 0.00 in - - ()
Sea Level Pressure  
Sea Level Pressure 30.01 in    
Wind  
Wind Speed 1 mph (WNW)    
Max Wind Speed 8 mph    
Max Gust Speed -    
Visibility 10 miles    
Events      
Averages and records for this station are not official NWS values.
T = Trace of Precipitation, MM = Missing Value Source: NWS Daily Summary

Daily Weather History Graph

Daily Weather History Graph

Search for Another Location

Airport:

Trip Planner

Search our weather history database for the weather conditions in past years. The results will help you decide how hot, cold, wet, or windy it might be!

Date:

Astronomy

Oct. 31, 2012 Rise Set
Actual Time 7:55 AM CDT 6:06 PM CDT
Civil Twilight 7:24 AM CDT 6:37 PM CDT
Nautical Twilight 6:49 AM CDT 7:11 PM CDT
Astronomical Twilight 6:15 AM CDT 7:45 PM CDT
Moon 7:13 PM CDT (10/31) 9:41 AM CDT (10/31)
Length of Visible Light 11h 12m
Length of Day
10h 11m
Full, 97% of the Moon is Illuminated
Oct 31
Full
Nov 6
Last Quarter
Nov 13
New
Nov 20
First Quarter
Nov 28
Full

Hourly Weather History & Observations

Time (CDT) Temp. Windchill Dew Point Humidity Pressure Visibility Wind Dir Wind Speed Gust Speed Precip Events Conditions
12:09 AM 30.4 °F - 23.4 °F 75% 30.08 in 10.0 mi Calm Calm - N/A   Clear
12:29 AM 29.5 °F 25.9 °F 23.2 °F 77% 30.08 in 10.0 mi NW 3.5 mph - N/A   Clear
12:49 AM 29.3 °F - 23.2 °F 78% 30.09 in 10.0 mi Calm Calm - N/A   Clear
1:08 AM 29.3 °F - 22.8 °F 77% 30.08 in 10.0 mi Calm Calm - N/A   Clear
1:28 AM 29.3 °F - 23.9 °F 80% 30.08 in 10.0 mi Calm Calm - N/A   Clear
1:48 AM 29.3 °F - 23.9 °F 80% 30.08 in 10.0 mi Calm Calm - N/A   Clear
2:08 AM 29.3 °F - 25.0 °F 84% 30.08 in 10.0 mi Calm Calm - N/A   Clear
2:29 AM 26.6 °F - 23.9 °F 90% 30.07 in 10.0 mi Calm Calm - N/A   Clear
2:48 AM 26.6 °F - 23.9 °F 90% 30.08 in 10.0 mi Calm Calm - N/A   Clear
3:09 AM 26.6 °F - 23.9 °F 90% 30.06 in 10.0 mi Calm Calm - N/A   Clear
3:28 AM 26.6 °F - 23.9 °F 90% 30.06 in 10.0 mi Calm Calm - N/A   Clear
3:49 AM 28.9 °F - 26.2 °F 90% 30.05 in 10.0 mi Calm Calm - N/A   Clear
4:08 AM 26.4 °F - 23.7 °F 90% 30.05 in 10.0 mi Calm Calm - N/A   Clear
4:28 AM 25.0 °F - 23.2 °F 93% 30.05 in 10.0 mi Calm Calm - N/A   Clear
4:49 AM 25.0 °F - 23.2 °F 93% 30.04 in 10.0 mi Calm Calm - N/A   Clear
5:08 AM 24.3 °F 19.9 °F 22.6 °F 94% 30.05 in 10.0 mi West 3.5 mph - N/A   Clear
5:29 AM 24.6 °F 20.3 °F 22.8 °F 93% 30.05 in 10.0 mi West 3.5 mph - N/A   Clear
5:49 AM 24.3 °F - 22.5 °F 93% 30.05 in 10.0 mi Calm Calm - N/A   Clear
6:08 AM 26.6 °F - 24.8 °F 93% 30.04 in 10.0 mi Calm Calm - N/A   Clear
6:29 AM 24.4 °F - 22.8 °F 94% 30.04 in 10.0 mi Calm Calm - N/A   Clear
6:49 AM 25.7 °F - 23.9 °F 93% 30.04 in 10.0 mi Calm Calm - N/A   Clear
7:09 AM 26.6 °F - 24.8 °F 93% 30.05 in 10.0 mi Calm Calm - N/A   Clear
7:20 AM 26.6 °F - 24.8 °F 93% 30.05 in 10.0 mi Calm Calm - N/A   Clear
7:50 AM 24.8 °F 20.5 °F 23.0 °F 93% 30.05 in 10.0 mi West 3.5 mph - N/A   Clear
7:53 AM 24.4 °F - 22.5 °F 92% 30.05 in 10.0 mi Calm Calm - N/A   Clear
8:07 AM 25.5 °F - 23.7 °F 93% 30.05 in 10.0 mi Calm Calm - N/A   Clear
8:08 AM 25.5 °F - 23.7 °F 93% 30.05 in 10.0 mi Calm Calm - N/A   Clear
8:50 AM 28.4 °F - 26.6 °F 93% 30.04 in 10.0 mi Calm Calm - N/A   Clear
9:10 AM 32.0 °F - 28.4 °F 87% 30.04 in 10.0 mi Calm Calm - N/A   Clear
9:30 AM 33.8 °F - 26.6 °F 75% 30.03 in 10.0 mi Calm Calm - N/A   Scattered Clouds
9:50 AM 37.4 °F 34.9 °F 26.6 °F 65% 30.04 in 10.0 mi NW 3.5 mph - N/A   Overcast
10:10 AM 39.2 °F 35.9 °F 26.6 °F 61% 30.04 in 10.0 mi NW 4.6 mph - N/A   Overcast
10:30 AM 39.2 °F 37.0 °F 26.6 °F 61% 30.04 in 10.0 mi WNW 3.5 mph - N/A   Overcast
10:36 AM - - - N/A% 30.04 in 10.0 mi West 4.6 mph - N/A   Overcast
10:49 AM 40.1 °F 36.9 °F 25.2 °F 55% 30.03 in 10.0 mi WNW 4.6 mph - N/A   Mostly Cloudy
11:13 AM 42.1 °F 37.7 °F 25.2 °F 51% 30.04 in 10.0 mi WNW 6.9 mph - N/A   Scattered Clouds
11:29 AM 43.7 °F 39.7 °F 27.0 °F 52% 30.04 in 10.0 mi WNW 6.9 mph - N/A   Scattered Clouds
11:49 AM 46.6 °F - 28.0 °F 49% 30.04 in 10.0 mi NW 6.9 mph - N/A   Scattered Clouds
12:02 PM 46.6 °F - 27.7 °F 48% 30.03 in 10.0 mi WNW 5.8 mph - N/A   Scattered Clouds
12:51 PM - - - N/A% 30.01 in 10.0 mi NW 6.9 mph - N/A   Clear
1:14 PM 49.1 °F - 28.0 °F 44% 30.01 in 10.0 mi NNW 3.5 mph - N/A   Clear
2:09 PM 53.1 °F - 30.0 °F 41% 29.98 in 10.0 mi West 8.1 mph - N/A   Clear
2:29 PM 53.1 °F - 29.8 °F 41% 29.97 in 10.0 mi WNW 4.6 mph - N/A   Clear
2:49 PM 54.1 °F - 30.0 °F 40% 29.96 in 10.0 mi NW 4.6 mph - N/A   Clear
3:08 PM 51.8 °F - 28.2 °F 40% 29.96 in 10.0 mi Calm Calm - N/A   Scattered Clouds
3:29 PM 54.1 °F - 29.5 °F 39% 29.96 in 10.0 mi Calm Calm - N/A   Mostly Cloudy
3:49 PM 54.1 °F - 29.3 °F 39% 29.96 in 10.0 mi NNW 5.8 mph - N/A   Scattered Clouds
4:08 PM 54.1 °F - 29.3 °F 39% 29.96 in 10.0 mi West 5.8 mph - N/A   Clear
4:28 PM 54.1 °F - 29.3 °F 39% 29.96 in 10.0 mi West 5.8 mph - N/A   Scattered Clouds
4:49 PM 54.1 °F - 30.4 °F 40% 29.96 in 10.0 mi West 4.6 mph - N/A   Clear
5:06 PM 54.1 °F - 31.3 °F 42% 29.96 in 10.0 mi West 5.8 mph - N/A   Scattered Clouds
5:29 PM 51.4 °F - 30.4 °F 44% 29.96 in 10.0 mi Calm Calm - N/A   Clear
5:49 PM 49.1 °F - 30.6 °F 49% 29.96 in 10.0 mi Calm Calm - N/A   Mostly Cloudy
6:09 PM 49.1 °F - 30.9 °F 50% 29.95 in 10.0 mi Calm Calm - N/A   Mostly Cloudy
6:29 PM 46.6 °F - 31.3 °F 55% 29.94 in 10.0 mi Calm Calm - N/A   Scattered Clouds
6:48 PM 46.6 °F - 31.3 °F 55% 29.94 in 10.0 mi Calm Calm - N/A   Scattered Clouds
7:09 PM 43.9 °F - 30.9 °F 60% 29.95 in 10.0 mi Calm Calm - N/A   Scattered Clouds
7:28 PM 42.6 °F - 30.7 °F 63% 29.95 in 10.0 mi Calm Calm - N/A   Scattered Clouds
8:09 PM 41.2 °F - 31.1 °F 67% 29.95 in 10.0 mi Calm Calm - N/A   Scattered Clouds
8:28 PM 40.3 °F - 30.9 °F 69% 29.95 in 10.0 mi Calm Calm - N/A   Mostly Cloudy
8:49 PM 40.3 °F - 32.0 °F 72% 29.94 in 10.0 mi Calm Calm - N/A   Overcast
9:09 PM 41.5 °F - 32.0 °F 69% 29.94 in 10.0 mi Calm Calm - N/A   Overcast
9:28 PM 41.9 °F - 31.3 °F 66% 29.94 in 10.0 mi Calm Calm - N/A   Overcast
9:49 PM 41.7 °F - 32.0 °F 68% 29.94 in 10.0 mi Calm Calm - N/A   Overcast
10:09 PM 41.7 °F - 32.0 °F 68% 29.94 in 10.0 mi Calm Calm - N/A   Overcast
10:28 PM 41.9 °F - 32.0 °F 68% 29.94 in 10.0 mi Calm Calm - N/A   Mostly Cloudy
11:08 PM 41.5 °F - 33.1 °F 72% 29.93 in 10.0 mi Calm Calm - N/A   Overcast
11:29 PM 41.5 °F - 33.6 °F 73% 29.93 in 10.0 mi Calm Calm - N/A   Overcast
11:49 PM 42.6 °F - 32.5 °F 68% 29.93 in 10.0 mi Calm Calm - N/A   Overcast